sat.trackr.live / text

‹ back to catalog

STARLINK-5168

NORAD 54071 · 2022-136W

PAYLOAD ACTIVE UNKNOWN

§ Identity

Operator
Country
US
Launch date
2022-10-20
Launch site
AFETR
Launch vehicle
Mass (kg)
RCS (m²)

Purposes: comms

External: N2YO · Heavens-Above · Gunter

§ Orbital elements

Epoch: 2026-05-25T00:43:21.516096Z

Period
95.44 min
Inclination
53.2128°
Eccentricity
0.0001180
Mean motion
15.08821295 rev/d
Perigee alt
539.0 km
Apogee alt
540.6 km
Semi-major
6,917.9 km
B*
2.6736e-4
RAAN
1.0706°
Arg perigee
93.4200°
Mean anomaly
266.6927°
Rev number
19,837

§ Raw data

STARLINK-51681 54071U 22136W   26145.03011014  .00003968  00000+0  26736-3 0  99912 54071  53.2128   1.0706 0001180  93.4200 266.6927 15.08821295198379

JSON: /api/v1/satellites/54071 · /tle

For live sub-satellite position, see the globe view (requires WebGL).

§ Visibility from observer

Set your observer location to see the next 7 days of passes ≥ 10°. The values pass through the URL so the page stays shareable.

No JS? Fill the form by hand. The geolocation button needs JavaScript.